Skip Page Navigation
NASA JPL Caltech
NASA Logo - Jet Propulsion Laboratory + View the NASA Portal
+ Near-Earth Object (NEO) Program
Search JPL
JPL Home Earth Solar System Stars & Galaxies Technology
JPL Solar System Dynamics
BODIES ORBITS EPHEMERIDES TOOLS PHYSICAL DATA DISCOVERY FAQ SITE MAP
JPL Small-Body Database Browser
Search: [ help ]  
(2003 MH4)
Classification: Apollo [NEO, PHA]          SPK-ID: 3157026
Ephemeris | Orbit Diagram | Orbital Elements | Physical Parameters | Close-Approach Data ]

[ hide orbit diagram ]
Orbit Diagram
Note: Make sure you have Java enabled on your browser to see the applet. This applet is provided as a 3D orbit visualization tool. The applet was implemented using 2-body methods, and hence should not be used for determining accurate long-term trajectories (over several years or decades) or planetary encounter circumstances. For accurate long-term ephemerides, please instead use our Horizons system.
Orbit Viewer

Additional Notes: the orbits shown in the applet are color coded. The planets are white lines, and the asteroid/comet is a blue line. The bright white line indicates the portion of the orbit that is above the ecliptic plane, and the darker portion is below the ecliptic plane. Likewise for the asteroid/comet orbit, the light blue indicates the portion above the ecliptic plane, and the dark blue the portion below the ecliptic plane.

Orbit Viewer applet originally written and kindly provided by Osamu Ajiki (AstroArts), and further modified by Ron Baalke (JPL).


Orbital Elements at Epoch 2456400.5 (2013-Apr-18.0) TDB
Reference: JPL 29 (heliocentric ecliptic J2000)
 Element Value Uncertainty (1-sigma)   Units 
e .5140908743192438 1.7665e-07  
a 1.964137563198605 7.3452e-07 AU
q .9543923660505651 1.7499e-07 AU
i 3.876952617366507 2.2355e-05 deg
node 259.9600882953622 0.00028875 deg
peri 322.9357600449976 0.00024204 deg
M 223.8259736991881 0.00082344 deg
tp 2456780.819030045502
(2014-May-03.31903005)
0.0025126 JED
period 1005.440277677714
2.75
0.000564
1.544e-06
d
yr
n .3580520971683167 2.0085e-07 deg/d
Q 2.973882760346645 1.1121e-06 AU
  Orbit Determination Parameters
   # obs. used (total)      147  
   data-arc span      1368 days (3.75 yr)  
   first obs. used      2003-01-26  
   last obs. used      2006-10-25  
   planetary ephem.      DE405  
   SB-pert. ephem.      SB405-CPV-2  
   condition code      2  
   fit RMS      .5801  
   data source      ORB  
   producer      Otto Matic  
   solution date      2011-Sep-14 19:50:59  

Additional Information
 Earth MOID = .00303444 AU 
 T_jup = 3.701 
[ show covariance matrix ]

Ephemeris | Orbit Diagram | Orbital Elements | Physical Parameters | Close-Approach Data ]

Physical Parameter Table
Parameter Symbol Value Units Sigma Reference Notes
absolute magnitude H 19.828 mag .5092 29 autocmod 2.5a

[ show close-approach data ]
Ephemeris | Orbit Diagram | Orbital Elements | Physical Parameters | Close-Approach Data ]
ABOUT SSD CREDITS/AWARDS PRIVACY/COPYRIGHT GLOSSARY LINKS
FirstGov 2013-Jun-20 13:32 UT
(server date/time)  
NASA Home Page
Site Manager:   Donald K. Yeomans
Webmaster  Alan B. Chamberlin